Starlink 1585

operational
NORAD ID: 46117 Int'l Des: 2020-057 Owner: SPXS Country: US Constellation: starlink
LEOCIRCULARSTARLINK_TYPE

About Starlink 1585

Description loading...

Live Position

Loading 3D Globe...

Upcoming Passes

Altitude History

Altitude vs Time

uPlot chart will show altitude changes over time

Two-Line Element Set

1 46117U 20057A 25352.27920908 .00106389 00000-0 18259-2 0 9991
2 46117 53.0531 286.6088 0012685 83.4395 276.8057 15.50278754294295
Epoch: Dec 18, 2025 • Age: 10 hours

Current Status

Altitude 413.1 km
Velocity 7.67 km/s
Sub-Earth Point 44.05°N, 83.3°E
Launch Date Aug 18, 2020
Age 5.3 years
Type internet

Technical Details

Classification Payload
Mass 260.00 kg
Dry Mass 248.00 kg
Total Mass 260.00 kg
Length 0.20 m
Diameter 2.80 m
Span 9.00 m
Shape Box + pan
Manufacturer SPXS
Bus Type Starlink
Phase Status In Orbit
Owner/State SPXS/US

Large Constellations

Loading constellations...